Location: Akdamlar
(36.8729°N, 30.5187°E)
Time: 20:50:32
(UTC+00:00)

MOS 1 - Pass Details

Date: 18 September 2020
Orbit: 878 x 891 km, 99.1° (Epoch: 24 October)

Event Time Altitude Azimuth Distance (km) Brightness Sun altitude
Exits shadow 17:40:26 32° 141° (SE) 1,471 5.0 -20.5°
Maximum altitude 17:43:01 63° 73° (ENE) 990 4.3 -20.9°
Drops below altitude 10° 17:48:39 10° 353° (N) 2,566 7.0 -22.0°
Sets 17:51:05 0° 351° (N) 3,509 7.8 -22.5°
